CDT,Max TemperatureF,Mean TemperatureF,Min TemperatureF,Max Dew PointF,MeanDew PointF,Min DewpointF,Max Humidity, Mean Humidity, Min Humidity, Max Sea Level PressureIn, Mean Sea Level PressureIn, Min Sea Level PressureIn, Max VisibilityMiles, Mean VisibilityMiles, Min VisibilityMiles, Max Wind SpeedMPH, Mean Wind SpeedMPH, Max Gust SpeedMPH,PrecipitationIn, CloudCover, Events, WindDirDegrees
2013-10-1,72,59,45,46,36,27,76,48,19,29.98,29.90,29.73,10,10,10,21,6,26,0.00,0,,242
2013-10-2,74,61,47,46,41,37,86,60,33,29.94,29.86,29.81,10,10,10,23,13,28,0.00,0,,54
2013-10-3,51,49,46,48,46,42,93,87,80,29.98,29.91,29.86,10,8,4,32,18,41,0.32,7,Rain-Thunderstorm,30
2013-10-4,47,43,39,45,41,37,96,93,89,29.97,29.85,29.64,10,4,1,47,28,55,1.79,8,Rain-Thunderstorm,26
2013-10-5,43,41,38,41,38,36,100,93,86,29.98,29.75,29.60,10,5,1,43,28,53,0.32,8,Rain-Snow,343
2013-10-6,62,50,37,40,36,31,83,61,39,30.06,30.02,29.99,10,10,8,24,13,31,0.00,1,Rain,301
2013-10-7,75,58,41,46,41,37,86,60,33,30.01,29.90,29.70,10,10,10,17,9,23,0.00,0,,196
2013-10-8,69,58,46,49,44,39,86,66,45,29.77,29.67,29.60,10,10,10,13,5,16,0.00,0,,232
2013-10-9,72,57,42,50,44,40,96,65,33,29.95,29.89,29.80,10,10,10,24,12,30,0.00,1,,34
2013-10-10,69,57,44,56,48,40,92,71,49,29.87,29.71,29.51,10,10,10,15,5,18,T,0,Thunderstorm,64
2013-10-11,66,58,49,56,47,35,86,71,56,29.80,29.43,29.16,10,9,2,41,24,52,0.11,6,Rain,228
2013-10-12,58,47,36,35,31,26,70,50,30,30.26,30.08,29.82,10,10,10,26,15,32,0.00,2,,294
2013-10-13,62,48,34,39,36,29,92,66,39,30.33,30.24,30.13,10,10,10,24,11,30,T,5,Rain,116
2013-10-14,56,46,36,47,44,38,100,76,51,30.10,29.90,29.73,10,7,1,35,17,44,1.74,8,Rain-Thunderstorm,100
2013-10-15,44,39,33,39,36,32,92,84,76,30.16,30.04,29.83,10,8,2,32,19,39,0.24,7,Rain-Snow,329
2013-10-16,57,44,30,36,32,29,100,69,38,30.14,30.01,29.88,10,10,10,15,8,20,0.00,0,,253
2013-10-17,44,38,32,38,33,26,92,73,53,30.11,30.02,29.87,10,10,10,29,14,36,0.01,6,Rain,311
2013-10-18,48,39,30,35,31,26,85,72,58,30.11,30.05,29.93,10,10,4,29,11,38,0.02,5,Rain,275
2013-10-19,58,49,39,40,36,31,76,60,43,29.90,29.79,29.68,10,10,10,17,8,21,0.00,5,,265
2013-10-20,53,42,31,39,35,28,89,76,63,30.07,29.85,29.65,10,10,10,29,16,37,T,6,Rain,316
2013-10-21,44,38,31,40,36,29,100,90,79,30.07,29.97,29.87,10,10,10,10,5,13,0.09,7,Rain,215
2013-10-22,44,38,31,42,36,28,100,85,70,30.12,30.02,29.88,10,10,5,18,7,22,T,7,Rain,352
2013-10-23,45,37,29,39,34,28,92,83,73,30.32,30.15,30.00,10,10,8,18,7,22,0.02,8,Rain,5
2013-10-24,47,36,25,31,26,23,92,69,45,30.41,30.36,30.32,10,10,10,10,5,18,0.00,0,,298
2013-10-25,69,48,27,43,34,23,92,65,37,30.31,30.10,29.93,10,10,10,17,9,22,0.00,0,,233
2013-10-26,50,40,30,35,28,26,85,66,46,30.31,30.19,30.01,10,10,10,23,8,28,0.00,0,,324
2013-10-27,63,46,28,38,31,24,82,59,36,30.19,29.94,29.84,10,10,10,22,10,29,0.00,0,,52
2013-10-28,36,32,27,27,25,23,92,78,64,30.43,30.35,30.22,10,8,0,24,18,30,0.08,6,Fog-Snow,57
2013-10-29,31,30,28,30,28,26,100,96,92,30.37,30.22,30.06,10,6,2,18,8,23,T,8,Rain,58
2013-10-30,36,33,30,33,31,28,100,95,89,30.09,29.90,29.76,10,8,1,8,3,9,T,8,,168
2013-10-31,51,41,30,38,34,31,96,74,52,29.74,29.62,29.54,10,10,9,26,13,32,T,4,,293